Flag for United Kingdom Weather past 2 weeks in Edinburgh, Scotland, United Kingdom

Now
57 °F

Passing clouds.


Feels Like: 56 °F
Forecast: 42 / 60 °F
Wind: 7 mph from Southwest

Location: Edinburgh Airport

Current Time: Aug 23, 2014 at 1:21:37 PM

Latest Report: Aug 23, 2014 at 12:50 PM


Visibility: N/A

Pressure: 29.92 "Hg

Humidity: 72%

Dew point: 48 °F

Location of EdinburghLocation

Historic Weather in Edinburgh — Graph

°F

Edinburgh temperature yesterday

Maximum temperature yesterday: 61 °F (at 3:50 PM)
Minimum temperature yesterday: 45 °F (at 4:50 AM)
Average temperature yesterday: 52 °F

Past Weeks' High & Low Weather Summary

 TemperatureHumidityPressure
High68 °F (Aug 8, 12:50 PM)100% (Aug 8, 8:20 PM)30.07 "Hg (Aug 8, 8:20 PM)
Low41 °F (Aug 19, 3:20 AM)48% (Aug 18, 1:50 PM)29.21 "Hg (Aug 11, 12:50 AM)
Average55 °F80%29.69 "Hg
* Reported Aug 8 12:20 PM — Aug 23 12:20 PM, Edinburgh, Weather by CustomWeather, © 2014

Note: Actual official high and low records may vary slightly from our data, if they occured in-between our weather recording intervals... More about our weather records

Advertising

Edinburgh weather history for previous 24 hours

 ConditionsComfort  
Time TempWeatherWind HumidityBarometerVisibility
12:20 PM
Aug 23
55 °FScattered clouds.6 mph72%29.95 "HgN/A
11:50 AM55 °FScattered clouds.5 mph77%29.95 "HgN/A
11:20 AM54 °FSprinkles. Partly sunny.6 mph82%29.95 "HgN/A
10:50 AM54 °FLight rain. Partly sunny.6 mph82%29.95 "HgN/A
10:20 AM52 °FPartly sunny.6 mph88%29.95 "HgN/A
9:50 AM52 °FPartly sunny.6 mph88%29.95 "HgN/A
9:20 AM52 °FPartly sunny.7 mph82%29.92 "HgN/A
8:50 AM50 °FLight rain. Partly sunny.6 mph94%29.92 "HgN/A
8:20 AM50 °FPartly sunny.6 mph88%29.92 "HgN/A
7:50 AM48 °FLight rain. Partly sunny.3 mph94%29.92 "HgN/A
7:20 AM48 °FLight rain. Partly sunny.5 mph94%29.92 "HgN/A
6:50 AM46 °FPassing clouds.5 mph93%29.89 "HgN/A
6:20 AM46 °FPassing clouds.3 mph93%29.89 "HgN/A
5:50 AM46 °FPassing clouds.2 mph93%29.89 "HgN/A
5:20 AM45 °FPartly cloudy.3 mph100%29.89 "HgN/A
4:50 AM46 °FPassing clouds.2 mph93%29.89 "HgN/A
4:20 AM46 °FClear.3 mph93%29.89 "Hg10 mi
3:50 AM46 °FClear.5 mph93%29.89 "Hg10 mi
3:20 AM45 °FPassing clouds.6 mph93%29.89 "HgN/A
2:50 AM46 °FClear.5 mph93%29.89 "Hg10 mi
2:20 AM46 °FPassing clouds.5 mph93%29.89 "HgN/A
1:50 AM46 °FPassing clouds.7 mph93%29.89 "HgN/A
1:20 AM46 °FClear.6 mph93%29.89 "Hg10 mi
12:50 AM48 °FClear.6 mph94%29.89 "Hg10 mi
12:20 AM48 °FPassing clouds.6 mph94%29.86 "HgN/A
11:50 PM
Aug 22
48 °FClear.5 mph94%29.86 "Hg10 mi
11:20 PM50 °FClear.6 mph88%29.86 "Hg10 mi
10:50 PM52 °FLight rain. Passing clouds.5 mph88%29.86 "HgN/A
10:20 PM50 °FLight rain. Passing clouds.3 mph94%29.86 "HgN/A
9:50 PM52 °FLight rain. Passing clouds.6 mph82%29.86 "HgN/A
9:20 PM52 °FSprinkles. Partly sunny.5 mph82%29.86 "HgN/A
8:50 PM52 °FSprinkles. Partly sunny.5 mph82%29.86 "HgN/A
8:20 PM52 °FScattered showers. Scattered clouds.No wind82%29.86 "HgN/A
7:50 PM54 °FScattered showers. Scattered clouds.No wind77%29.86 "HgN/A
7:20 PM55 °FScattered showers. Scattered clouds.2 mph77%29.83 "HgN/A
6:50 PM55 °FScattered showers. Scattered clouds.3 mph72%29.83 "HgN/A
6:20 PM57 °FScattered showers. Scattered clouds.7 mph67%29.83 "HgN/A
5:50 PM55 °FScattered clouds.3 mph67%29.83 "HgN/A
5:20 PM55 °FScattered showers. Scattered clouds.5 mph67%29.83 "HgN/A
4:50 PM57 °FScattered showers. Scattered clouds.8 mph63%29.83 "HgN/A
4:20 PM57 °FScattered showers. Scattered clouds.9 mph63%29.83 "HgN/A
3:50 PM61 °FScattered showers. Scattered clouds.6 mph55%29.83 "HgN/A
3:20 PM59 °FScattered showers. Scattered clouds.7 mph59%29.83 "HgN/A
2:50 PM57 °FSprinkles. Scattered clouds.8 mph59%29.83 "HgN/A
2:20 PM59 °FScattered showers. Scattered clouds.7 mph59%29.83 "HgN/A
1:50 PM57 °FSprinkles. Scattered clouds.7 mph67%29.83 "HgN/A
1:20 PM57 °FPassing clouds.9 mph63%29.83 "HgN/A
Weather by CustomWeather, © 2014

See weather overviewHow to use our weather pages